THORAD DELTA 1 DEB, 8164

Orbit data source: Space-Track

THORAD DELTA 1 DEB, 8164 is space debris in SSO originally from a launch on Fri, 15 Nov 1974 UTC launched from the Air Force Western Test Range (AFWTR). Debris objects in space refer to the collection of defunct objects orbiting the Earth. Examples of debris include non-operational satellites, rocket bodies, and fragments generated from explosions, collisions, or faulty payload assembly.

Loading next visibility...
Identifier
8164, 1974-089AE
Orbit
SSO
Country
Flag of USUS
Related business
Manufacturer
Unknown
Mission
Spacecraft
Bus & Motor
Unknown
Mass
Unknown
Launch date (UTC)
1974-11-15 (52 years ago)
Launch vehicle
Unknown
Launch site
Air Force Western Test Range (AFWTR)
Object type
Payload
Rocket body
Debris
Shape & HBR
Unknown shape, 0.3 m
Radar Cross Section
Medium (>0.1 m² and <1 m²)

Expand to show TLE details & history
Last TLE update: 5 hours ago

TLE from 5 hours ago
0 THORAD DELTA 1 DEB
1 08164U 74089AE  26166.33346178 -.00000050  00000-0 -68897-4 0  9992
2 08164 101.6378 285.2669 0120570 356.3612  69.0509 12.28973536314380
Epoch: 2026-06-15T08:00Z
TLE epoch observation values (Epoch: 2026-06-15T08:00:11.097Z)
Latitude
64.19419°
Longitude
-123.47901°
Altitude
1,531.396 km
Speed
7.121 km/s
True Right ascension
17h 20m 45s
True Declination
64° 04' 21"
Sunlit
Object was in daylight at epoch
Visualization orbit readout
Latitude
Unknown
Longitude
Unknown
Altitude
Unknown
Speed
Unknown
Apparent Right ascension
Unknown
Apparent Declination
Unknown
Sunlit
N/A
Visualization observer readout
Local Sidereal Time
00:00:59
Azimuth
Unknown
Elevation
Unknown
Doppler factor
Unknown
Orbital elements
Apogee altitude
1,646.867 km
Perigee altitude
1,455.657 km
Semi-major axis
7,929.399 km
Eccentricity
0.01206
Inclination
101.6378°
RAAN
285.2669°
Arg. of periapsis
356.3612°
True anomaly
70.34808°
Mean anomaly
69.0509°
Eccentric anomaly
69.6988°
Mean motion
3.07385 °/min
Orbital period
117.12 mins
BSTAR
-0.000068897
Loading maneuver chart data...
Computing Atmospheric mass density...

Documentation

Showing up to 5 results
|